Duchifat 3
1 44854U 19089C   25117.77193685  .00071021  00000-0  15715-2 0  9996
2 44854  36.9450 266.6368 0001527 288.1719  71.8870 15.42702468296324
TO-108
1 44881U 19093C   25117.85610799  .00001903  00000-0  22625-3 0  9991
2 44881  97.7933 194.3990 0014109  18.0774 342.0940 14.85500505289736
FloripaSat 1
1 44885U 19093G   25117.80439676  .00010657  00000-0  90706-3 0  9994
2 44885  97.8173 205.3358 0010147 358.2819   1.8366 14.97950649290347
RS-44
1 44909U 19096E   25117.47716168 -.00000007  00000-0 -75751-4 0  9995
2 44909  82.5195 255.9142 0217956  36.6189 324.9586 12.79740271249179
UPMSat 2
1 46276U 20061E   25117.16713443  .00082760  00000-0  91037-3 0  9995
2 46276  97.2476 190.2694 0001475 142.5918 217.5443 15.62894931258672
SALSAT
1 46495U 20068K   25117.49967110  .00013519  00000-0  59330-3 0  9999
2 46495  97.8578  93.5670 0010115 320.2328  39.8165 15.22041268251979
CubeSX-Sirius-HSE
1 47951U 21022V   25117.83191925  .00293089  00000-0  18246-2 0  9991
2 47951  97.4194  28.6568 0010504 103.5996 256.6439 15.76053505227070
CubeSX-HSE
1 47952U 21022W   25117.85006650  .00284502  00000-0  17332-2 0  9999
2 47952  97.4204  28.9224 0010079 100.8019 259.4381 15.76577873227096
GRBAlpha
1 47959U 21022AD  25117.82740899  .00272949  00000-0  17214-2 0  9994
2 47959  97.4197  29.0080 0010047 102.7043 257.5346 15.75815428225918
TUBIN
1 48900U 21059X   25117.83779497  .00068733  00000-0  96487-3 0  9992
2 48900  97.6727 283.7258 0002688  45.0188 315.1284 15.56499532213386
LEDSAT
1 49069U 21073D   25117.78548946  .00086178  00000-0  12733-2 0  9996
2 49069  97.3914 197.7156 0011634 226.4318 133.5971 15.54964705204775
CUTE
1 49263U 21088D   25117.18992289  .00021907  00000-0  46107-3 0  9997
2 49263  97.4522 192.2370 0008900  49.5325 310.6698 15.45266222197728
TeikyoSat 4
1 49396U 21102B   25117.54014127  .00003758  00000-0  25175-3 0  9993
2 49396  97.4135 157.5173 0010986 282.4997  77.5002 15.07428668190060
Z-Sat
1 49399U 21102E   25117.86314827  .00008495  00000-0  46980-3 0  9991
2 49399  97.3840 160.6667 0016708 249.7277 110.2159 15.13996182190519
KOSEN 1
1 49402U 21102H   25117.08960467  .00011949  00000-0  56223-3 0  9996
2 49402  97.3750 163.0110 0015028 226.2710 133.7281 15.19605333190685
HO-113
1 50466U 21131B   25117.84285580  .00001201  00000-0  38930-3 0  9995
2 50466  98.5084 207.4110 0002995 258.4649 101.6203 14.40753478175295
IRIS-A
1 51044U 22002BN  25117.67061429  .00279336  00000-0  13869-2 0  9990
2 51044  97.3261 195.8812 0003981 248.8161 111.2682 15.81216878183076
Foresail-1
1 52766U 22057AL  25117.39822447  .00197477  00000-0  11923-2 0  9990
2 52766  97.6044 264.6152 0000336 211.0043 149.1202 15.77074025163059
SNUGLITE 2
1 52899U 22065F   25117.61204395  .00002756  00000-0  54560-3 0  9997
2 52899  98.1619 260.0221 0006539 242.4696 117.5841 14.63086937150200
IO-117
1 53106U 22080B   25051.21822557 -.00000003  00000-0  00000+0 0  9995
2 53106  70.1434 106.3440 0008542  48.0089 312.1297  6.42557744 61200
UmKA 1 (RS40S)
1 57172U 23091G   25117.87650007  .00011328  00000-0  61135-3 0  9990
2 57172  97.5620 173.4882 0016303 120.2272 240.0576 15.14795535101017
CubeBel-2 (EU11S)
1 57175U 23091K   25117.88065548  .00017877  00000-0  86956-3 0  9997
2 57175  97.5619 174.3917 0014091 128.4788 231.7712 15.18374822101072
VERONIKA
1 58261U 23174F   25117.80798039  .00139972  00000-0  17241-2 0  9997
2 58261  97.4151 201.7693 0007702 200.8253 159.2691 15.59715125 81996
ENSO
1 58470U 23185J   25117.86864307  .00075738  00000-0  12897-2 0  9990
2 58470  97.3765 191.7618 0008060 223.3885 136.6733 15.51098243 78407
EIRSAT-1
1 58472U 23185L   25117.88573199  .00118786  00000-0  15053-2 0  9998
2 58472  97.3737 193.0626 0007469 221.6856 138.3832 15.59036766 78491
SONATE-2
1 59112U 24043Q   25117.34038159  .00026615  00000-0  80478-3 0  9990
2 59112  97.5074 247.7167 0010482 265.0551  94.9495 15.34139039 63709
MO-122
1 60209U 24125G   25117.16769746  .00026068  00000-0  77866-3 0  9992
2 60209  97.2845 329.3099 0017767 294.4855  65.4535 15.34424354 45297
GRBBeta
1 60237U 24128C   25117.47573361  .00007246  00000-0  54867-3 0  9999
2 60237  61.9927 229.7992 0048122  47.9291 312.5878 15.02217406 43721
Curium One
1 60242U 24128H   25117.51265366  .00013273  00000-0  93505-3 0  9992
2 60242  61.9825 228.5586 0047874  43.3872 317.0972 15.04399801 43758
ROBUSTA-3A
1 60243U 24128J   25117.50266122  .00013473  00000-0  96125-3 0  9996
2 60243  61.9896 229.2833 0046419  41.2318 319.2264 15.03970840 43740
CatSat
1 60246U 24125J   25117.52341057  .00014495  00000-0  49750-3 0  9996
2 60246  97.2633 329.3456 0041883 246.3866 113.2975 15.29390372 43401
HYPERVIEW-1G (RS66S)
1 61772U 24199AP  25117.90154964  .00033622  00000-0  10311-2 0  9996
2 61772  97.3599 346.8898 0013458 353.8697   6.2379 15.33605892 70416
AO-123
1 61781U 24199AY  25117.88422603  .00012161  00000-0  44992-3 0  9999
2 61781  97.3609 346.1747 0015711 356.0206   4.0906 15.27715635 70365
ZIMSAT 2
1 61783U 24199BA  25117.88438961  .00056705  00000-0  15327-2 0  9996
2 61783  97.3581 347.2031 0013423 352.2940   7.8096 15.37446079 73587
HADES-R (SO-124)
1 62690U 25009CK  25117.18098142  .00051955  00000-0  20207-2 0  9996
2 62690  97.4110 198.2557 0003713 212.1146 147.9866 15.25840194 15528
HYDRA-T
1 62692U 25009CM  25117.50052746  .00059451  00000-0  22936-2 0  9994
2 62692  97.4108 198.5915 0003641 206.7478 153.3573 15.26071293 15573
JINJUSat 1B
1 63210U 25052A   25116.95310304  .00020304  00000-0  95669-3 0  9993
2 63210  97.4474  11.6517 0006533 106.9271 253.2681 15.19520172  6627
NUSHSAT 1
1 63211U 25052B   25117.61135085  .00022307  00000-0  10465-2 0  9994
2 63211  97.4460  12.2970 0006515 108.9834 251.2107 15.19651634  6720
TEVEL2-4
1 63213U 25052D   25117.22207957  .00019217  00000-0  90935-3 0  9998
2 63213  97.4381  11.8550 0005341 120.3380 239.8383 15.19390085  6664
TEVEL2-5
1 63214U 25052E   25117.88082321  .00021801  00000-0  10303-2 0  9999
2 63214  97.4376  12.5036 0005302 119.1341 241.0425 15.19407401  6760
TEVEL2-6
1 63215U 25052F   25117.42082558  .00019362  00000-0  91733-3 0  9998
2 63215  97.4380  12.0489 0005391 120.4575 239.7193 15.19346243  6699
TEVEL2-1
1 63217U 25052H   25117.22843273  .00018897  00000-0  90062-3 0  9993
2 63217  97.4357  11.8341 0005247 130.7158 229.4533 15.19145205  6666
TEVEL2-2
1 63218U 25052J   25117.55800375  .00021140  00000-0  10066-2 0  9996
2 63218  97.4356  12.1585 0005268 130.3871 229.7825 15.19154024  6713
TEVEL2-3
1 63219U 25052K   25117.62388444  .00020606  00000-0  98133-3 0  9991
2 63219  97.4356  12.2230 0005267 130.0330 230.1367 15.19153814  6722
TEVEL2-8
1 63237U 25052AD  25117.19446211  .00019590  00000-0  96470-3 0  9992
2 63237  97.4418  11.7615 0009118 153.5501 206.6200 15.17974322  6650
TEVEL2-9
1 63238U 25052AE  25117.19532887  .00019237  00000-0  94858-3 0  9994
2 63238  97.4420  11.7615 0009215 153.8047 206.3654 15.17931014  6651
TEVEL2-7
1 63239U 25052AF  25117.26220314  .00019397  00000-0  95733-3 0  9992
2 63239  97.4418  11.8240 0009206 153.5911 206.5794 15.17897404  6663
HYDRA-W
1 63490U 25052BL  25117.61584534  .00043287  00000-0  19560-2 0  9995
2 63490  97.4371  12.2424 0013640 152.1766 208.0202 15.20731619  6726
HADES-ICM
1 63492U 25052BN  25117.62047337  .00040198  00000-0  18337-2 0  9992
2 63492  97.4379  12.2384 0013762 155.9433 204.2448 15.20423587  6720
